Year,Month,Day,Hour,Minute,Value (Times are PST for insolation in W/m^2)
2007,06,16,00,00,0.00
2007,06,16,00,01,0.00
2007,06,16,00,02,0.00
2007,06,16,00,03,0.00
2007,06,16,00,04,0.00
2007,06,16,00,05,0.00
2007,06,16,00,06,0.00
2007,06,16,00,07,0.00
2007,06,16,00,08,0.00
2007,06,16,00,09,0.00
2007,06,16,00,10,0.00
2007,06,16,00,11,0.00
2007,06,16,00,12,0.00
2007,06,16,00,13,0.00
2007,06,16,00,14,0.00
2007,06,16,00,15,0.00
2007,06,16,00,16,0.00
2007,06,16,00,17,0.00
2007,06,16,00,18,0.00
2007,06,16,00,19,0.00
2007,06,16,00,20,0.00
2007,06,16,00,21,0.00
2007,06,16,00,22,0.00
2007,06,16,00,23,0.00
2007,06,16,00,24,0.00
2007,06,16,00,25,0.00
2007,06,16,00,26,0.00
2007,06,16,00,27,0.00
2007,06,16,00,28,0.00
2007,06,16,00,29,0.00
2007,06,16,00,30,0.00
2007,06,16,00,31,0.00
2007,06,16,00,32,0.00
2007,06,16,00,33,0.00
2007,06,16,00,34,0.00
2007,06,16,00,35,0.00
2007,06,16,00,36,0.00
2007,06,16,00,37,0.00
2007,06,16,00,38,0.00
2007,06,16,00,39,0.00
2007,06,16,00,40,0.00
2007,06,16,00,41,0.00
2007,06,16,00,42,0.00
2007,06,16,00,43,0.00
2007,06,16,00,44,0.00
2007,06,16,00,45,0.00
2007,06,16,00,46,0.00
2007,06,16,00,47,0.00
2007,06,16,00,48,0.00
2007,06,16,00,49,0.00
2007,06,16,00,50,0.00
2007,06,16,00,51,0.00
2007,06,16,00,52,0.00
2007,06,16,00,53,0.00
2007,06,16,00,54,0.00
2007,06,16,00,55,0.00
2007,06,16,00,56,0.00
2007,06,16,00,57,0.00
2007,06,16,00,58,0.00
2007,06,16,00,59,0.00
2007,06,16,01,00,0.00
2007,06,16,01,01,0.00
2007,06,16,01,02,0.00
2007,06,16,01,03,0.00
2007,06,16,01,04,0.00
2007,06,16,01,05,0.00
2007,06,16,01,06,0.00
2007,06,16,01,07,0.00
2007,06,16,01,08,0.00
2007,06,16,01,09,0.00
2007,06,16,01,10,0.00
2007,06,16,01,11,0.00
2007,06,16,01,12,0.00
2007,06,16,01,13,0.00
2007,06,16,01,14,0.00
2007,06,16,01,15,0.00
2007,06,16,01,16,0.00
2007,06,16,01,17,0.00
2007,06,16,01,18,0.00
2007,06,16,01,19,0.00
2007,06,16,01,20,0.00
2007,06,16,01,21,0.00
2007,06,16,01,22,0.00
2007,06,16,01,23,0.00
2007,06,16,01,24,0.00
2007,06,16,01,25,0.00
2007,06,16,01,26,0.00
2007,06,16,01,27,0.00
2007,06,16,01,28,0.00
2007,06,16,01,29,0.00
2007,06,16,01,30,0.00
2007,06,16,01,31,0.00
2007,06,16,01,32,0.00
2007,06,16,01,33,0.00
2007,06,16,01,34,0.00
2007,06,16,01,35,0.00
2007,06,16,01,36,0.00
2007,06,16,01,37,0.00
2007,06,16,01,38,0.00
2007,06,16,01,39,0.00
2007,06,16,01,40,0.00
2007,06,16,01,41,0.00
2007,06,16,01,42,0.00
2007,06,16,01,43,0.00
2007,06,16,01,44,0.00
2007,06,16,01,45,0.00
2007,06,16,01,46,0.00
2007,06,16,01,47,0.00
2007,06,16,01,48,0.00
2007,06,16,01,49,0.00
2007,06,16,01,50,0.00
2007,06,16,01,51,0.00
2007,06,16,01,52,0.00
2007,06,16,01,53,0.00
2007,06,16,01,54,0.00
2007,06,16,01,55,0.00
2007,06,16,01,56,0.00
2007,06,16,01,57,0.00
2007,06,16,01,58,0.00
2007,06,16,01,59,0.00
2007,06,16,02,00,0.00
2007,06,16,02,01,0.00
2007,06,16,02,02,0.00
2007,06,16,02,03,0.00
2007,06,16,02,04,0.00
2007,06,16,02,05,0.00
2007,06,16,02,06,0.00
2007,06,16,02,07,0.00
2007,06,16,02,08,0.00
2007,06,16,02,09,0.00
2007,06,16,02,10,0.00
2007,06,16,02,11,0.00
2007,06,16,02,12,0.00
2007,06,16,02,13,0.00
2007,06,16,02,14,0.00
2007,06,16,02,15,0.00
2007,06,16,02,16,0.00
2007,06,16,02,17,0.00
2007,06,16,02,18,0.00
2007,06,16,02,19,0.00
2007,06,16,02,20,0.00
2007,06,16,02,21,0.00
2007,06,16,02,22,0.00
2007,06,16,02,23,0.00
2007,06,16,02,24,0.00
2007,06,16,02,25,0.00
2007,06,16,02,26,0.00
2007,06,16,02,27,0.00
2007,06,16,02,28,0.00
2007,06,16,02,29,0.00
2007,06,16,02,30,0.00
2007,06,16,02,31,0.00
2007,06,16,02,32,0.00
2007,06,16,02,33,0.00
2007,06,16,02,34,0.00
2007,06,16,02,35,0.00
2007,06,16,02,36,0.00
2007,06,16,02,37,0.00
2007,06,16,02,38,0.00
2007,06,16,02,39,0.00
2007,06,16,02,40,0.00
2007,06,16,02,41,0.00
2007,06,16,02,42,0.00
2007,06,16,02,43,0.00
2007,06,16,02,44,0.00
2007,06,16,02,45,0.00
2007,06,16,02,46,0.00
2007,06,16,02,47,0.00
2007,06,16,02,48,0.00
2007,06,16,02,49,0.00
2007,06,16,02,50,0.00
2007,06,16,02,51,0.00
2007,06,16,02,52,0.00
2007,06,16,02,53,0.00
2007,06,16,02,54,0.00
2007,06,16,02,55,0.00
2007,06,16,02,56,0.00
2007,06,16,02,57,0.00
2007,06,16,02,58,0.00
2007,06,16,02,59,0.00
2007,06,16,03,00,0.00
2007,06,16,03,01,0.00
2007,06,16,03,02,0.00
2007,06,16,03,03,0.00
2007,06,16,03,04,0.00
2007,06,16,03,05,0.00
2007,06,16,03,06,0.00
2007,06,16,03,07,0.00
2007,06,16,03,08,0.00
2007,06,16,03,09,0.00
2007,06,16,03,10,0.00
2007,06,16,03,11,0.00
2007,06,16,03,12,0.00
2007,06,16,03,13,0.00
2007,06,16,03,14,0.00
2007,06,16,03,15,0.00
2007,06,16,03,16,0.00
2007,06,16,03,17,0.00
2007,06,16,03,18,0.00
2007,06,16,03,19,0.00
2007,06,16,03,20,0.00
2007,06,16,03,21,0.00
2007,06,16,03,22,0.00
2007,06,16,03,23,0.00
2007,06,16,03,24,0.00
2007,06,16,03,25,0.00
2007,06,16,03,26,0.00
2007,06,16,03,27,0.00
2007,06,16,03,28,0.00
2007,06,16,03,29,0.00
2007,06,16,03,30,0.00
2007,06,16,03,31,0.00
2007,06,16,03,32,0.00
2007,06,16,03,33,0.00
2007,06,16,03,34,0.00
2007,06,16,03,35,0.00
2007,06,16,03,36,0.00
2007,06,16,03,37,0.00
2007,06,16,03,38,0.00
2007,06,16,03,39,0.00
2007,06,16,03,40,0.00
2007,06,16,03,41,0.00
2007,06,16,03,42,0.00
2007,06,16,03,43,0.00
2007,06,16,03,44,0.00
2007,06,16,03,45,0.00
2007,06,16,03,46,0.00
2007,06,16,03,47,0.00
2007,06,16,03,48,0.00
2007,06,16,03,49,0.00
2007,06,16,03,50,0.00
2007,06,16,03,51,0.00
2007,06,16,03,52,0.00
2007,06,16,03,53,0.00
2007,06,16,03,54,0.00
2007,06,16,03,55,0.00
2007,06,16,03,56,0.00
2007,06,16,03,57,0.00
2007,06,16,03,58,0.00
2007,06,16,03,59,0.00
2007,06,16,04,00,0.00
2007,06,16,04,01,0.00
2007,06,16,04,02,0.00
2007,06,16,04,03,0.00
2007,06,16,04,04,0.00
2007,06,16,04,05,0.00
2007,06,16,04,06,0.00
2007,06,16,04,07,0.00
2007,06,16,04,08,0.00
2007,06,16,04,09,0.00
2007,06,16,04,10,0.00
2007,06,16,04,11,0.00
2007,06,16,04,12,0.00
2007,06,16,04,13,0.00
2007,06,16,04,14,0.00
2007,06,16,04,15,0.00
2007,06,16,04,16,0.00
2007,06,16,04,17,0.00
2007,06,16,04,18,0.00
2007,06,16,04,19,0.00
2007,06,16,04,20,0.00
2007,06,16,04,21,0.00
2007,06,16,04,22,0.00
2007,06,16,04,23,0.00
2007,06,16,04,24,0.00
2007,06,16,04,25,0.00
2007,06,16,04,26,0.00
2007,06,16,04,27,0.00
2007,06,16,04,28,0.00
2007,06,16,04,29,0.00
2007,06,16,04,30,0.00
2007,06,16,04,31,0.00
2007,06,16,04,32,0.00
2007,06,16,04,33,0.00
2007,06,16,04,34,0.00
2007,06,16,04,35,0.00
2007,06,16,04,36,0.00
2007,06,16,04,37,0.00
2007,06,16,04,38,0.00
2007,06,16,04,39,0.00
2007,06,16,04,40,0.00
2007,06,16,04,41,0.00
2007,06,16,04,42,0.00
2007,06,16,04,43,0.00
2007,06,16,04,44,0.00
2007,06,16,04,45,0.00
2007,06,16,04,46,0.00
2007,06,16,04,47,0.00
2007,06,16,04,48,0.00
2007,06,16,04,49,0.00
2007,06,16,04,50,0.00
2007,06,16,04,51,0.00
2007,06,16,04,52,0.00
2007,06,16,04,53,0.00
2007,06,16,04,54,0.00
2007,06,16,04,55,0.00
2007,06,16,04,56,0.00
2007,06,16,04,57,0.00
2007,06,16,04,58,0.00
2007,06,16,04,59,0.00
2007,06,16,05,00,0.00
2007,06,16,05,01,0.00
2007,06,16,05,02,0.00
2007,06,16,05,03,0.00
2007,06,16,05,04,0.00
2007,06,16,05,05,0.00
2007,06,16,05,06,0.00
2007,06,16,05,07,0.00
2007,06,16,05,08,0.00
2007,06,16,05,09,0.00
2007,06,16,05,10,0.00
2007,06,16,05,11,0.00
2007,06,16,05,12,0.00
2007,06,16,05,13,0.00
2007,06,16,05,14,0.00
2007,06,16,05,15,0.00
2007,06,16,05,16,0.00
2007,06,16,05,17,2.80
2007,06,16,05,18,5.00
2007,06,16,05,19,5.00
2007,06,16,05,20,5.00
2007,06,16,05,21,5.00
2007,06,16,05,22,5.10
2007,06,16,05,23,7.00
2007,06,16,05,24,7.00
2007,06,16,05,25,7.00
2007,06,16,05,26,7.00
2007,06,16,05,27,7.00
2007,06,16,05,28,8.10
2007,06,16,05,29,9.00
2007,06,16,05,30,9.00
2007,06,16,05,31,9.00
2007,06,16,05,32,9.00
2007,06,16,05,33,9.10
2007,06,16,05,34,11.00
2007,06,16,05,35,11.00
2007,06,16,05,36,11.30
2007,06,16,05,37,12.00
2007,06,16,05,38,12.00
2007,06,16,05,39,13.10
2007,06,16,05,40,14.00
2007,06,16,05,41,14.00
2007,06,16,05,42,14.00
2007,06,16,05,43,15.80
2007,06,16,05,44,16.10
2007,06,16,05,45,18.00
2007,06,16,05,46,18.00
2007,06,16,05,47,18.30
2007,06,16,05,48,19.00
2007,06,16,05,49,19.00
2007,06,16,05,50,20.10
2007,06,16,05,51,21.00
2007,06,16,05,52,21.00
2007,06,16,05,53,22.60
2007,06,16,05,54,23.00
2007,06,16,05,55,24.90
2007,06,16,05,56,25.00
2007,06,16,05,57,25.20
2007,06,16,05,58,26.00
2007,06,16,05,59,26.80
2007,06,16,06,00,28.00
2007,06,16,06,01,29.10
2007,06,16,06,02,31.30
2007,06,16,06,03,32.70
2007,06,16,06,04,34.60
2007,06,16,06,05,38.50
2007,06,16,06,06,40.10
2007,06,16,06,07,42.30
2007,06,16,06,08,44.50
2007,06,16,06,09,46.30
2007,06,16,06,10,48.60
2007,06,16,06,11,51.90
2007,06,16,06,12,53.50
2007,06,16,06,13,54.00
2007,06,16,06,14,55.40
2007,06,16,06,15,61.10
2007,06,16,06,16,74.50
2007,06,16,06,17,90.20
2007,06,16,06,18,88.90
2007,06,16,06,19,79.80
2007,06,16,06,20,88.70
2007,06,16,06,21,107.60
2007,06,16,06,22,115.00
2007,06,16,06,23,112.30
2007,06,16,06,24,100.60
2007,06,16,06,25,95.00
2007,06,16,06,26,78.20
2007,06,16,06,27,69.50
2007,06,16,06,28,67.10
2007,06,16,06,29,67.00
2007,06,16,06,30,67.00
2007,06,16,06,31,67.00
2007,06,16,06,32,66.20
2007,06,16,06,33,65.00
2007,06,16,06,34,63.80
2007,06,16,06,35,62.30
2007,06,16,06,36,60.50
2007,06,16,06,37,58.40
2007,06,16,06,38,56.20
2007,06,16,06,39,54.00
2007,06,16,06,40,52.70
2007,06,16,06,41,51.00
2007,06,16,06,42,50.40
2007,06,16,06,43,49.00
2007,06,16,06,44,48.10
2007,06,16,06,45,47.00
2007,06,16,06,46,47.00
2007,06,16,06,47,46.20
2007,06,16,06,48,46.00
2007,06,16,06,49,46.00
2007,06,16,06,50,47.00
2007,06,16,06,51,47.20
2007,06,16,06,52,49.40
2007,06,16,06,53,51.60
2007,06,16,06,54,53.40
2007,06,16,06,55,55.00
2007,06,16,06,56,57.10
2007,06,16,06,57,60.60
2007,06,16,06,58,62.00
2007,06,16,06,59,67.60
2007,06,16,07,00,69.00
2007,06,16,07,01,72.10
2007,06,16,07,02,76.40
2007,06,16,07,03,80.20
2007,06,16,07,04,86.20
2007,06,16,07,05,93.30
2007,06,16,07,06,99.50
2007,06,16,07,07,103.70
2007,06,16,07,08,105.00
2007,06,16,07,09,105.00
2007,06,16,07,10,105.00
2007,06,16,07,11,102.30
2007,06,16,07,12,94.90
2007,06,16,07,13,92.60
2007,06,16,07,14,90.00
2007,06,16,07,15,89.40
2007,06,16,07,16,88.80
2007,06,16,07,17,90.50
2007,06,16,07,18,92.10
2007,06,16,07,19,95.60
2007,06,16,07,20,97.80
2007,06,16,07,21,99.60
2007,06,16,07,22,98.20
2007,06,16,07,23,97.90
2007,06,16,07,24,97.00
2007,06,16,07,25,97.00
2007,06,16,07,26,96.40
2007,06,16,07,27,95.00
2007,06,16,07,28,94.10
2007,06,16,07,29,93.00
2007,06,16,07,30,94.30
2007,06,16,07,31,96.50
2007,06,16,07,32,97.80
2007,06,16,07,33,101.60
2007,06,16,07,34,104.10
2007,06,16,07,35,107.30
2007,06,16,07,36,109.00
2007,06,16,07,37,108.40
2007,06,16,07,38,107.00
2007,06,16,07,39,107.00
2007,06,16,07,40,108.10
2007,06,16,07,41,112.00
2007,06,16,07,42,116.80
2007,06,16,07,43,120.40
2007,06,16,07,44,124.60
2007,06,16,07,45,130.00
2007,06,16,07,46,135.30
2007,06,16,07,47,138.00
2007,06,16,07,48,142.50
2007,06,16,07,49,149.60
2007,06,16,07,50,158.10
2007,06,16,07,51,172.40
2007,06,16,07,52,200.50
2007,06,16,07,53,211.00
2007,06,16,07,54,194.20
2007,06,16,07,55,192.70
2007,06,16,07,56,193.10
2007,06,16,07,57,196.40
2007,06,16,07,58,212.20
2007,06,16,07,59,227.70
2007,06,16,08,00,198.30
2007,06,16,08,01,181.90
2007,06,16,08,02,175.80
2007,06,16,08,03,172.70
2007,06,16,08,04,172.00
2007,06,16,08,05,172.00
2007,06,16,08,06,172.00
2007,06,16,08,07,170.90
2007,06,16,08,08,169.00
2007,06,16,08,09,168.50
2007,06,16,08,10,167.00
2007,06,16,08,11,166.20
2007,06,16,08,12,165.00
2007,06,16,08,13,163.90
2007,06,16,08,14,163.00
2007,06,16,08,15,162.20
2007,06,16,08,16,162.00
2007,06,16,08,17,162.90
2007,06,16,08,18,163.20
2007,06,16,08,19,167.00
2007,06,16,08,20,167.50
2007,06,16,08,21,169.60
2007,06,16,08,22,172.10
2007,06,16,08,23,176.00
2007,06,16,08,24,179.60
2007,06,16,08,25,182.30
2007,06,16,08,26,184.50
2007,06,16,08,27,185.80
2007,06,16,08,28,187.70
2007,06,16,08,29,190.10
2007,06,16,08,30,192.10
2007,06,16,08,31,194.00
2007,06,16,08,32,197.90
2007,06,16,08,33,200.80
2007,06,16,08,34,204.00
2007,06,16,08,35,206.50
2007,06,16,08,36,207.00
2007,06,16,08,37,208.50
2007,06,16,08,38,210.60
2007,06,16,08,39,213.70
2007,06,16,08,40,218.10
2007,06,16,08,41,221.30
2007,06,16,08,42,223.50
2007,06,16,08,43,225.60
2007,06,16,08,44,227.00
2007,06,16,08,45,226.00
2007,06,16,08,46,225.00
2007,06,16,08,47,225.00
2007,06,16,08,48,226.50
2007,06,16,08,49,229.40
2007,06,16,08,50,233.40
2007,06,16,08,51,237.00
2007,06,16,08,52,237.00
2007,06,16,08,53,237.50
2007,06,16,08,54,240.50
2007,06,16,08,55,246.80
2007,06,16,08,56,253.00
2007,06,16,08,57,259.10
2007,06,16,08,58,266.20
2007,06,16,08,59,272.50
2007,06,16,09,00,279.60
2007,06,16,09,01,284.60
2007,06,16,09,02,290.90
2007,06,16,09,03,311.90
2007,06,16,09,04,335.80
2007,06,16,09,05,344.30
2007,06,16,09,06,352.40
2007,06,16,09,07,359.60
2007,06,16,09,08,378.50
2007,06,16,09,09,395.60
2007,06,16,09,10,392.20
2007,06,16,09,11,371.10
2007,06,16,09,12,389.80
2007,06,16,09,13,462.60
2007,06,16,09,14,483.70
2007,06,16,09,15,596.00
2007,06,16,09,16,627.00
2007,06,16,09,17,685.40
2007,06,16,09,18,670.50
2007,06,16,09,19,664.80
2007,06,16,09,20,669.30
2007,06,16,09,21,665.50
2007,06,16,09,22,657.60
2007,06,16,09,23,656.90
2007,06,16,09,24,651.80
2007,06,16,09,25,649.20
2007,06,16,09,26,650.00
2007,06,16,09,27,649.70
2007,06,16,09,28,649.00
2007,06,16,09,29,649.00
2007,06,16,09,30,398.20
2007,06,16,09,31,193.00
2007,06,16,09,32,343.80
2007,06,16,09,33,435.60
2007,06,16,09,34,446.00
2007,06,16,09,35,668.00
2007,06,16,09,36,680.60
2007,06,16,09,37,683.50
2007,06,16,09,38,670.00
2007,06,16,09,39,639.60
2007,06,16,09,40,639.50
2007,06,16,09,41,610.50
2007,06,16,09,42,597.70
2007,06,16,09,43,665.40
2007,06,16,09,44,699.20
2007,06,16,09,45,706.60
2007,06,16,09,46,717.10
2007,06,16,09,47,719.50
2007,06,16,09,48,721.00
2007,06,16,09,49,720.60
2007,06,16,09,50,729.00
2007,06,16,09,51,736.50
2007,06,16,09,52,742.90
2007,06,16,09,53,728.20
2007,06,16,09,54,719.00
2007,06,16,09,55,719.00
2007,06,16,09,56,514.70
2007,06,16,09,57,454.40
2007,06,16,09,58,356.20
2007,06,16,09,59,292.50
2007,06,16,10,00,284.00
2007,06,16,10,01,285.60
2007,06,16,10,02,275.80
2007,06,16,10,03,273.60
2007,06,16,10,04,292.00
2007,06,16,10,05,334.20
2007,06,16,10,06,325.80
2007,06,16,10,07,328.80
2007,06,16,10,08,350.00
2007,06,16,10,09,400.40
2007,06,16,10,10,374.80
2007,06,16,10,11,416.50
2007,06,16,10,12,419.20
2007,06,16,10,13,394.00
2007,06,16,10,14,506.80
2007,06,16,10,15,599.00
2007,06,16,10,16,512.00
2007,06,16,10,17,483.00
2007,06,16,10,18,483.00
2007,06,16,10,19,496.50
2007,06,16,10,20,764.20
2007,06,16,10,21,833.00
2007,06,16,10,22,773.00
2007,06,16,10,23,605.00
2007,06,16,10,24,547.80
2007,06,16,10,25,478.00
2007,06,16,10,26,607.60
2007,06,16,10,27,691.90
2007,06,16,10,28,691.00
2007,06,16,10,29,691.00
2007,06,16,10,30,691.00
2007,06,16,10,31,674.50
2007,06,16,10,32,535.80
2007,06,16,10,33,543.00
2007,06,16,10,34,600.50
2007,06,16,10,35,735.50
2007,06,16,10,36,782.40
2007,06,16,10,37,762.00
2007,06,16,10,38,705.50
2007,06,16,10,39,691.00
2007,06,16,10,40,446.70
2007,06,16,10,41,420.50
2007,06,16,10,42,465.90
2007,06,16,10,43,458.50
2007,06,16,10,44,513.50
2007,06,16,10,45,489.00
2007,06,16,10,46,518.00
2007,06,16,10,47,547.00
2007,06,16,10,48,491.10
2007,06,16,10,49,461.00
2007,06,16,10,50,341.00
2007,06,16,10,51,303.50
2007,06,16,10,52,368.60
2007,06,16,10,53,391.10
2007,06,16,10,54,404.40
2007,06,16,10,55,433.50
2007,06,16,10,56,509.00
2007,06,16,10,57,563.00
2007,06,16,10,58,638.30
2007,06,16,10,59,700.00
2007,06,16,11,00,609.00
2007,06,16,11,01,570.00
2007,06,16,11,02,570.00
2007,06,16,11,03,696.30
2007,06,16,11,04,703.00
2007,06,16,11,05,724.40
2007,06,16,11,06,810.00
2007,06,16,11,07,848.80
2007,06,16,11,08,944.80
2007,06,16,11,09,980.00
2007,06,16,11,10,992.80
2007,06,16,11,11,1003.00
2007,06,16,11,12,1009.70
2007,06,16,11,13,925.30
2007,06,16,11,14,918.90
2007,06,16,11,15,1065.40
2007,06,16,11,16,1095.80
2007,06,16,11,17,1148.70
2007,06,16,11,18,1199.20
2007,06,16,11,19,1216.00
2007,06,16,11,20,1216.00
2007,06,16,11,21,1001.50
2007,06,16,11,22,841.90
2007,06,16,11,23,823.00
2007,06,16,11,24,549.40
2007,06,16,11,25,516.70
2007,06,16,11,26,540.90
2007,06,16,11,27,487.20
2007,06,16,11,28,408.90
2007,06,16,11,29,361.40
2007,06,16,11,30,336.90
2007,06,16,11,31,318.90
2007,06,16,11,32,309.90
2007,06,16,11,33,308.80
2007,06,16,11,34,322.50
2007,06,16,11,35,370.00
2007,06,16,11,36,419.80
2007,06,16,11,37,422.00
2007,06,16,11,38,467.20
2007,06,16,11,39,603.00
2007,06,16,11,40,603.00
2007,06,16,11,41,572.80
2007,06,16,11,42,530.50
2007,06,16,11,43,534.70
2007,06,16,11,44,540.80
2007,06,16,11,45,517.40
2007,06,16,11,46,522.30
2007,06,16,11,47,524.00
2007,06,16,11,48,545.40
2007,06,16,11,49,738.00
2007,06,16,11,50,799.30
2007,06,16,11,51,942.80
2007,06,16,11,52,920.20
2007,06,16,11,53,868.00
2007,06,16,11,54,924.40
2007,06,16,11,55,962.70
2007,06,16,11,56,979.80
2007,06,16,11,57,989.10
2007,06,16,11,58,990.00
2007,06,16,11,59,990.50
2007,06,16,12,00,987.20
2007,06,16,12,01,985.80
2007,06,16,12,02,989.20
2007,06,16,12,03,985.80
2007,06,16,12,04,966.50
2007,06,16,12,05,958.80
2007,06,16,12,06,1005.50
2007,06,16,12,07,1026.60
2007,06,16,12,08,1039.10
2007,06,16,12,09,1054.90
2007,06,16,12,10,1071.20
2007,06,16,12,11,1084.50
2007,06,16,12,12,1053.00
2007,06,16,12,13,1095.70
2007,06,16,12,14,1165.00
2007,06,16,12,15,909.20
2007,06,16,12,16,658.70
2007,06,16,12,17,638.00
2007,06,16,12,18,995.60
2007,06,16,12,19,1085.00
2007,06,16,12,20,1090.70
2007,06,16,12,21,1199.00
2007,06,16,12,22,1199.00
2007,06,16,12,23,1199.00
2007,06,16,12,24,1199.00
2007,06,16,12,25,844.70
2007,06,16,12,26,437.60
2007,06,16,12,27,388.40
2007,06,16,12,28,350.70
2007,06,16,12,29,351.40
2007,06,16,12,30,368.30
2007,06,16,12,31,405.20
2007,06,16,12,32,462.00
2007,06,16,12,33,503.00
2007,06,16,12,34,612.70
2007,06,16,12,35,568.60
2007,06,16,12,36,500.40
2007,06,16,12,37,466.30
2007,06,16,12,38,478.00
2007,06,16,12,39,453.00
2007,06,16,12,40,439.60
2007,06,16,12,41,434.80
2007,06,16,12,42,438.60
2007,06,16,12,43,457.20
2007,06,16,12,44,482.80
2007,06,16,12,45,526.80
2007,06,16,12,46,566.00
2007,06,16,12,47,558.80
2007,06,16,12,48,581.90
2007,06,16,12,49,628.40
2007,06,16,12,50,671.40
2007,06,16,12,51,747.20
2007,06,16,12,52,678.00
2007,06,16,12,53,707.30
2007,06,16,12,54,626.60
2007,06,16,12,55,571.60
2007,06,16,12,56,510.00
2007,06,16,12,57,510.00
2007,06,16,12,58,510.00
2007,06,16,12,59,510.00
2007,06,16,13,00,510.00
2007,06,16,13,01,578.60
2007,06,16,13,02,616.80
2007,06,16,13,03,619.00
2007,06,16,13,04,438.10
2007,06,16,13,05,457.00
2007,06,16,13,06,457.00
2007,06,16,13,07,457.00
2007,06,16,13,08,737.00
2007,06,16,13,09,1252.10
2007,06,16,13,10,1257.00
2007,06,16,13,11,1266.00
2007,06,16,13,12,825.40
2007,06,16,13,13,668.00
2007,06,16,13,14,1060.90
2007,06,16,13,15,1130.80
2007,06,16,13,16,1294.00
2007,06,16,13,17,1294.00
2007,06,16,13,18,1313.90
2007,06,16,13,19,1357.00
2007,06,16,13,20,1357.00
2007,06,16,13,21,1357.00
2007,06,16,13,22,1357.00
2007,06,16,13,23,857.20
2007,06,16,13,24,643.00
2007,06,16,13,25,535.90
2007,06,16,13,26,504.40
2007,06,16,13,27,517.00
2007,06,16,13,28,580.10
2007,06,16,13,29,782.00
2007,06,16,13,30,782.00
2007,06,16,13,31,782.00
2007,06,16,13,32,630.20
2007,06,16,13,33,490.40
2007,06,16,13,34,472.90
2007,06,16,13,35,476.20
2007,06,16,13,36,484.00
2007,06,16,13,37,502.90
2007,06,16,13,38,519.00
2007,06,16,13,39,587.80
2007,06,16,13,40,863.00
2007,06,16,13,41,863.00
2007,06,16,13,42,863.00
2007,06,16,13,43,863.00
2007,06,16,13,44,857.60
2007,06,16,13,45,854.00
2007,06,16,13,46,630.80
2007,06,16,13,47,575.00
2007,06,16,13,48,357.60
2007,06,16,13,49,309.20
2007,06,16,13,50,284.60
2007,06,16,13,51,266.20
2007,06,16,13,52,250.20
2007,06,16,13,53,238.10
2007,06,16,13,54,225.90
2007,06,16,13,55,216.20
2007,06,16,13,56,208.80
2007,06,16,13,57,203.00
2007,06,16,13,58,199.40
2007,06,16,13,59,199.00
2007,06,16,14,00,199.10
2007,06,16,14,01,200.40
2007,06,16,14,02,203.50
2007,06,16,14,03,209.40
2007,06,16,14,04,216.60
2007,06,16,14,05,227.10
2007,06,16,14,06,239.80
2007,06,16,14,07,256.00
2007,06,16,14,08,275.00
2007,06,16,14,09,297.90
2007,06,16,14,10,323.00
2007,06,16,14,11,343.50
2007,06,16,14,12,362.60
2007,06,16,14,13,384.80
2007,06,16,14,14,414.80
2007,06,16,14,15,448.40
2007,06,16,14,16,491.30
2007,06,16,14,17,512.00
2007,06,16,14,18,512.00
2007,06,16,14,19,517.60
2007,06,16,14,20,533.50
2007,06,16,14,21,581.00
2007,06,16,14,22,611.00
2007,06,16,14,23,624.80
2007,06,16,14,24,607.20
2007,06,16,14,25,605.60
2007,06,16,14,26,639.50
2007,06,16,14,27,654.40
2007,06,16,14,28,649.00
2007,06,16,14,29,649.00
2007,06,16,14,30,649.00
2007,06,16,14,31,1249.10
2007,06,16,14,32,1355.00
2007,06,16,14,33,1355.00
2007,06,16,14,34,1178.60
2007,06,16,14,35,473.00
2007,06,16,14,36,473.00
2007,06,16,14,37,473.00
2007,06,16,14,38,473.00
2007,06,16,14,39,446.60
2007,06,16,14,40,433.90
2007,06,16,14,41,484.00
2007,06,16,14,42,496.00
2007,06,16,14,43,372.20
2007,06,16,14,44,357.60
2007,06,16,14,45,333.80
2007,06,16,14,46,326.50
2007,06,16,14,47,330.00
2007,06,16,14,48,336.80
2007,06,16,14,49,345.50
2007,06,16,14,50,348.40
2007,06,16,14,51,368.20
2007,06,16,14,52,392.00
2007,06,16,14,53,470.00
2007,06,16,14,54,393.40
2007,06,16,14,55,368.20
2007,06,16,14,56,397.20
2007,06,16,14,57,418.00
2007,06,16,14,58,418.00
2007,06,16,14,59,418.00
2007,06,16,15,00,418.00
2007,06,16,15,01,418.00
2007,06,16,15,02,792.50
2007,06,16,15,03,953.00
2007,06,16,15,04,580.70
2007,06,16,15,05,458.50
2007,06,16,15,06,516.70
2007,06,16,15,07,487.00
2007,06,16,15,08,487.00
2007,06,16,15,09,458.20
2007,06,16,15,10,381.70
2007,06,16,15,11,354.60
2007,06,16,15,12,408.90
2007,06,16,15,13,432.00
2007,06,16,15,14,432.00
2007,06,16,15,15,432.00
2007,06,16,15,16,985.70
2007,06,16,15,17,1026.70
2007,06,16,15,18,996.60
2007,06,16,15,19,991.70
2007,06,16,15,20,975.60
2007,06,16,15,21,963.00
2007,06,16,15,22,941.00
2007,06,16,15,23,966.50
2007,06,16,15,24,935.90
2007,06,16,15,25,911.00
2007,06,16,15,26,995.60
2007,06,16,15,27,1005.00
2007,06,16,15,28,1007.90
2007,06,16,15,29,1034.00
2007,06,16,15,30,965.30
2007,06,16,15,31,773.00
2007,06,16,15,32,773.00
2007,06,16,15,33,609.10
2007,06,16,15,34,490.60
2007,06,16,15,35,544.10
2007,06,16,15,36,564.00
2007,06,16,15,37,564.00
2007,06,16,15,38,909.50
2007,06,16,15,39,1005.70
2007,06,16,15,40,973.80
2007,06,16,15,41,1037.00
2007,06,16,15,42,853.20
2007,06,16,15,43,511.10
2007,06,16,15,44,510.00
2007,06,16,15,45,510.00
2007,06,16,15,46,409.20
2007,06,16,15,47,399.60
2007,06,16,15,48,471.00
2007,06,16,15,49,426.00
2007,06,16,15,50,406.50
2007,06,16,15,51,385.20
2007,06,16,15,52,386.40
2007,06,16,15,53,406.00
2007,06,16,15,54,510.40
2007,06,16,15,55,597.30
2007,06,16,15,56,564.00
2007,06,16,15,57,564.00
2007,06,16,15,58,652.80
2007,06,16,15,59,595.80
2007,06,16,16,00,596.20
2007,06,16,16,01,775.50
2007,06,16,16,02,815.80
2007,06,16,16,03,869.30
2007,06,16,16,04,912.00
2007,06,16,16,05,912.00
2007,06,16,16,06,665.60
2007,06,16,16,07,494.60
2007,06,16,16,08,515.00
2007,06,16,16,09,867.00
2007,06,16,16,10,1008.70
2007,06,16,16,11,997.50
2007,06,16,16,12,989.80
2007,06,16,16,13,984.20
2007,06,16,16,14,969.00
2007,06,16,16,15,969.00
2007,06,16,16,16,969.00
2007,06,16,16,17,844.20
2007,06,16,16,18,742.00
2007,06,16,16,19,821.80
2007,06,16,16,20,856.00
2007,06,16,16,21,702.20
2007,06,16,16,22,665.70
2007,06,16,16,23,486.00
2007,06,16,16,24,461.50
2007,06,16,16,25,445.60
2007,06,16,16,26,461.00
2007,06,16,16,27,461.00
2007,06,16,16,28,461.00
2007,06,16,16,29,461.00
2007,06,16,16,30,815.20
2007,06,16,16,31,967.00
2007,06,16,16,32,503.80
2007,06,16,16,33,396.80
2007,06,16,16,34,398.30
2007,06,16,16,35,428.40
2007,06,16,16,36,446.00
2007,06,16,16,37,446.00
2007,06,16,16,38,483.40
2007,06,16,16,39,575.20
2007,06,16,16,40,613.00
2007,06,16,16,41,479.30
2007,06,16,16,42,402.00
2007,06,16,16,43,379.90
2007,06,16,16,44,365.90
2007,06,16,16,45,349.90
2007,06,16,16,46,328.00
2007,06,16,16,47,304.70
2007,06,16,16,48,282.80
2007,06,16,16,49,265.40
2007,06,16,16,50,251.00
2007,06,16,16,51,236.80
2007,06,16,16,52,222.20
2007,06,16,16,53,208.40
2007,06,16,16,54,196.10
2007,06,16,16,55,190.00
2007,06,16,16,56,184.60
2007,06,16,16,57,180.40
2007,06,16,16,58,176.20
2007,06,16,16,59,170.00
2007,06,16,17,00,164.80
2007,06,16,17,01,158.10
2007,06,16,17,02,151.40
2007,06,16,17,03,145.50
2007,06,16,17,04,142.40
2007,06,16,17,05,141.10
2007,06,16,17,06,146.10